STARLINK-11092, 59710

Orbit data source: Space-Track

STARLINK-11092, 59710 is a payload satellite owned by SpaceX/Seattle (US) in LEO that was launched on Fri, 10 May 2024 UTC via an FALCON 9 launch vehicle from the Air Force Western Test Range (AFWTR). Payload-class satellites include a variety of spacecraft equipped with specific instruments for various scientific and technological missions. These include communications satellites like Starlink; space stations such as the ISS; scientific satellites like the Hubble; Earth observation satellites from companies like Planet Labs, Umbra, and HawkEye 360; GPS; miniature CubeSats for education and research; and military/defense satellites.

Loading next visibility...
Identifier
59710, 2024-088C
Orbit
LEO
Country
Flag of USUS
Related business
Manufacturer
SpaceX/Seattle
Mission
Operational Commercial Communications
Bus & Motor
STARLINK V2MD, Unknown motor
Mass
960 kg wet, ~910 kg dry
Launch date (UTC)
2024-05-10 (2 years ago)
Launch vehicle
FALCON 9
Launch site
Air Force Western Test Range (AFWTR)
Object type
Payload
Rocket body
Debris
Shape & HBR
Box + 2 Pan, 18.1 m
Radar Cross Section
36.964 m², Large (>1 m²)

Expand to show TLE details & history
Last TLE update: 20 hours ago

TLE from 20 hours ago
0 STARLINK-11092
1 59710U 24088C   25346.55698058 -.00001928  00000-0 -11072-4 0  9997
2 59710  53.1596  36.0565 0001058  95.1730 264.9408 15.69684323 92581
Epoch: 2025-12-12T13:22Z
TLE epoch observation values (Epoch: 2025-12-12T13:22:03.122Z)
Latitude
-0.00006°
Longitude
114.04655°
Altitude
360.778 km
Speed
7.694 km/s
True Right ascension
02h 24m 13s
True Declination
0° 00' 00"
Sunlit
Object was in full shadow at epoch
Visualization orbit readout
Latitude
Unknown
Longitude
Unknown
Altitude
Unknown
Speed
Unknown
Apparent Right ascension
Unknown
Apparent Declination
Unknown
Sunlit
N/A
Visualization observer readout
Local Sidereal Time
07:33:26
Azimuth
Unknown
Elevation
Unknown
Doppler factor
Unknown
Orbital elements
Apogee altitude
360.774 km
Perigee altitude
359.348 km
Semi-major axis
6,738.198 km
Eccentricity
0.00011
Inclination
53.1596°
RAAN
36.0565°
Arg. of periapsis
95.173°
True anomaly
264.92872°
Mean anomaly
264.9408°
Eccentric anomaly
264.93476°
Mean motion
3.92399 °/min
Orbital period
91.74 mins
BSTAR
-0.000011072
Loading maneuver chart data...
Computing Atmospheric mass density...
Loading historical data...
Loading historical data...
Loading historical data...
Loading historical data...
Loading historical data...
Loading historical data...
Loading historical data...

Documentation

Showing up to 5 results
|